Terminal Aerodrome Forecast
Issued by NWS Hastings, NE

Home | Current Version | Previous Version | Text Only | Print | Product List | Glossary On
Versions: 1 2 3 4 5 6 7 8 9 10 11 12 13 14 15 16 17 18 19 20 21 22 23 24 25 26 27 28 29 30 31 32 33 34
000
FTUS43 KGID 270539
TAFGRI
TAF
KGRI 270539Z 2706/2806 VRB05KT P6SM SCT060 BKN100
     FM271300 14008KT P6SM BKN060
     FM271700 17014G20KT P6SM SCT150
     FM272300 16010KT P6SM SCT200=

USA.gov is the U.S. government's official web portal to all federal, state and local government web resources and services.